Flag for U.S.A. Weather past 2 weeks in Downey, California, U.S.A.

Now
68 °F

Sunny.


Feels Like: 68 °F
Forecast: 57 / 76 °F
Wind: 8 mph from South

Location: Long Beach Airport


UV Index: 5 (Moderate)

Visibility: 10 mi


Pressure: 30.06 "Hg

Humidity: 61%

Dew point: 54 °F

Location of DowneyLocation

Historic Weather in Downey

°F

Downey temperature yesterday

Maximum temperature yesterday: 74 °F (at 1:53 PM)
Minimum temperature yesterday: 57 °F (at 5:53 AM)
Average temperature yesterday: 64 °F

Past Weeks' High & Low Weather Summary

 TemperatureHumidityPressure
High90 °F (Apr 8, 2:53 PM)100% (Apr 10, 9:01 AM)30.10 "Hg (Apr 10, 9:01 AM)
Low51 °F (Apr 10, 4:53 AM)14% (Apr 8, 2:53 PM)29.79 "Hg (Apr 16, 5:53 PM)
Average64 °F59%29.96 "Hg
* Reported Apr 5 11:53 AM — Apr 20 11:53 AM, Downey, Weather by CustomWeather, © 2014

Note: Actual official high and low records may vary slightly from our data, if they occured in-between our weather recording intervals... More about our weather records

Advertising

Historic Weather Conditions — Data for Previous 24 hours

 ConditionsComfort  
Time TempWeatherWind HumidityBarometerVisibility
11:53 AM
Apr 20
68 °FSunny.8 mph61%30.06 "Hg10 mi
10:53 AM66 °FSunny.5 mph65%30.06 "Hg9 mi
9:53 AM65 °FPassing clouds.No wind68%30.06 "Hg8 mi
8:53 AM63 °FPassing clouds.No wind73%30.06 "Hg8 mi
7:53 AM60 °FScattered clouds.No wind83%30.05 "Hg8 mi
6:53 AM58 °FPassing clouds.No wind84%30.04 "Hg7 mi
5:53 AM58 °FClear.No wind81%30.03 "Hg8 mi
4:53 AM59 °FClear.5 mph81%30.02 "Hg8 mi
3:53 AM60 °FPassing clouds.5 mph78%30.03 "Hg9 mi
2:53 AM61 °FOvercast.5 mph78%30.04 "Hg10 mi
1:53 AM60 °FLow clouds.No wind80%30.04 "Hg9 mi
12:53 AM60 °FPassing clouds.5 mph78%30.05 "Hg9 mi
11:53 PM
Apr 19
61 °FClear.No wind75%30.05 "Hg10 mi
10:53 PM61 °FClear.3 mph75%30.04 "Hg10 mi
9:53 PM60 °FClear.3 mph78%30.02 "Hg10 mi
8:53 PM63 °FClear.3 mph65%30.01 "Hg10 mi
7:53 PM63 °FSunny.3 mph65%29.99 "Hg10 mi
6:53 PM65 °FSunny.14 mph61%29.98 "Hg10 mi
5:53 PM69 °FSunny.13 mph53%29.97 "Hg10 mi
4:53 PM70 °FSunny.14 mph51%29.97 "Hg10 mi
3:53 PM73 °FSunny.9 mph46%29.96 "Hg10 mi
2:53 PM73 °FSunny.12 mph46%29.98 "Hg10 mi
1:53 PM74 °FSunny.9 mph45%29.99 "Hg10 mi
12:53 PM71 °FSunny.5 mph51%29.99 "Hg10 mi
Weather by CustomWeather, © 2014

See weather overview